User: anonymous   Login
Location: Campillo
(40.8621°N, 4.2488°W)
Time: 17:05:39
(UTC+00:00)
Language:

SJ 16-02 - Orbit

View from above orbital plane
View from above orbital plane
View from above satellite
View from above satellite

Ground track
Ground track

The orbit data is extracted from the following two-line orbital elements,

1 41634U 16043A   21216.11575828  .00000074  00000-0  11683-4 0  9995
2 41634  75.0039  21.0607 0007141  20.0966 340.0505 14.85825873276526
Epoch (UTC): 04 August 2021 02:46:41
Eccentricity: 0.0007141
inclination: 75.0039°
perigee height: 606 km
apogee height: 616 km
right ascension of ascending node: 21.0607°
argument of perigee: 20.0966°
revolutions per day: 14.85825873
mean anomaly at epoch: 340.0505°
orbit number at epoch: 27652

The dashed part of the orbit path shows where the satellite is in the earth's shadow,  

DLR